CW3065 Weather Reports


Display with metric or nautical units.
time (UTC)temp
F
wind
direction
speed
MPH
gust
MPH
rain 1hr
in
rain 24hr
in
rain mn
in
humidity
%
barometer
mb
20260506183504 32 106 5.0 9.0 0.06 0.13 0.07 76 1019.0
20260506182504 33 86 4.0 7.0 0.06 0.12 0.06 72 1019.1
20260506182005 34 143 0.0 5.0 0.05 0.12 0.05 72 1019.1
20260506181003 35 151 0.0 0.0 0.05 0.12 0.05 66 1019.2
20260506180503 35 151 0.0 0.0 0.04 0.11 0.04 70 1019.3
20260506180005 35 151 0.0 0.0 0.04 0.11 0.04 67 1019.2
20260506175504 34 151 0.0 2.0 0.03 0.11 0.03 67 1019.3
20260506174504 34 62 0.0 2.0 0.02 0.10 0.02 71 1019.4
20260506174004 32 62 0.0 0.0 0.01 0.09 0.01 71 1019.5
20260506173504 32 76 0.0 0.0 0.01 0.09 0.01 66 1019.5
20260506173004 32 67 0.0 2.0 0.00 0.08 0.00 72 1019.5
20260506172504 31 94 0.0 2.0 0.00 0.08 0.00 76 1019.5
20260506172004 30 70 0.0 1.0 0.00 0.08 0.00 78 1019.5
20260506171504 29 106 0.0 0.0 0.00 0.09 0.00 78 1019.5
20260506171004 28 94 0.0 0.0 0.00 0.09 0.00 78 1019.4
20260506170503 28 107 0.0 0.0 0.00 0.09 0.00 78 1019.3
20260506170004 28 103 0.0 0.0 0.00 0.09 0.00 80 1019.4
20260506164504 28 106 0.0 0.0 0.00 0.09 0.00 81 1019.3
20260506164004 27 99 0.0 0.0 0.00 0.10 0.00 81 1019.3
20260506163503 27 107 0.0 0.0 0.00 0.10 0.00 82 1019.3
20260506163004 27 85 0.0 0.0 0.00 0.10 0.00 83 1019.3
20260506162504 27 80 0.0 0.0 0.00 0.10 0.00 81 1019.3
20260506162004 27 99 0.0 0.0 0.00 0.10 0.00 82 1019.3
20260506161004 26 91 0.0 0.0 0.00 0.10 0.00 84 1019.2
20260506160004 26 72 0.0 0.0 0.00 0.10 0.00 85 1019.0
20260506155504 26 84 0.0 0.0 0.00 0.10 0.00 86 1019.1
20260506154504 25 89 0.0 0.0 0.00 0.10 0.00 88 1018.8
20260506154004 25 105 0.0 0.0 0.00 0.10 0.00 87 1018.6
20260506153504 25 98 0.0 0.0 0.00 0.10 0.00 87 1018.6
20260506153003 25 94 0.0 0.0 0.00 0.10 0.00 88 1018.6
20260506151503 24 78 0.0 0.0 0.00 0.10 0.00 88 1018.6
20260506151004 24 91 0.0 0.0 0.00 0.10 0.00 89 1018.5
20260506150504 24 112 0.0 0.0 0.00 0.10 0.00 89 1018.4
20260506150004 24 107 0.0 0.0 0.00 0.10 0.00 89 1018.4
20260506145504 24 114 0.0 0.0 0.00 0.10 0.00 89 1018.3
20260506145004 24 99 0.0 0.0 0.00 0.10 0.00 90 1017.9
20260506144504 24 111 0.0 0.0 0.00 0.10 0.00 90 1017.9
20260506144004 24 91 0.0 0.0 0.00 0.10 0.00 91 1017.9
20260506143504 24 110 0.0 0.0 0.00 0.10 0.00 91 1017.9
20260506142504 23 107 0.0 0.0 0.00 0.10 0.00 92 1018.3
20260506142003 23 85 0.0 0.0 0.00 0.10 0.00 92 1018.4
20260506141504 23 113 0.0 0.0 0.00 0.10 0.00 91 1018.4
20260506140503 23 109 0.0 0.0 0.00 0.10 0.00 92 1018.2
20260506140004 23 97 0.0 0.0 0.00 0.10 0.00 92 1018.2
20260506135505 23 116 0.0 0.0 0.00 0.10 0.00 92 1017.9
20260506135004 23 86 0.0 0.0 0.00 0.10 0.00 92 1017.6
20260506134504 23 78 0.0 0.0 0.00 0.10 0.00 92 1017.5
20260506133004 23 75 0.0 0.0 0.00 0.10 0.00 93 1017.2
20260506132504 23 84 0.0 0.0 0.00 0.10 0.00 93 1017.2
20260506132005 23 71 0.0 0.0 0.00 0.10 0.00 92 1017.2
20260506131503 23 86 0.0 0.0 0.00 0.10 0.00 92 1017.2
20260506131004 22 121 0.0 0.0 0.00 0.10 0.00 93 1017.2
20260506130504 22 100 0.0 0.0 0.00 0.10 0.00 92 1017.1
20260506130005 22 89 0.0 0.0 0.00 0.10 0.00 93 1016.7
20260506125504 22 80 0.0 0.0 0.00 0.10 0.00 93 1016.6
20260506125004 22 85 0.0 0.0 0.00 0.10 0.00 93 1016.6
20260506124504 22 82 0.0 0.0 0.00 0.10 0.00 93 1016.5
20260506124004 22 80 0.0 0.0 0.00 0.10 0.00 93 1016.5
20260506123503 22 81 0.0 0.0 0.00 0.10 0.00 93 1016.5
20260506123004 22 72 0.0 0.0 0.00 0.10 0.00 93 1016.5
20260506122504 22 92 0.0 0.0 0.00 0.10 0.00 93 1016.2
20260506122004 22 89 0.0 0.0 0.00 0.10 0.00 93 1016.4
20260506121504 22 89 0.0 0.0 0.00 0.10 0.00 93 1016.3
20260506120504 23 99 0.0 0.0 0.00 0.10 0.00 93 1016.0
20260506120003 23 95 0.0 0.0 0.00 0.10 0.00 93 1015.9
20260506115504 23 98 0.0 0.0 0.00 0.10 0.00 93 1015.9
20260506115004 23 74 0.0 0.0 0.00 0.10 0.00 93 1015.9
20260506114504 23 79 0.0 0.0 0.00 0.10 0.00 93 1015.9
20260506114005 23 98 0.0 0.0 0.00 0.10 0.00 93 1015.9
20260506113504 23 98 0.0 0.0 0.00 0.10 0.00 92 1015.9
20260506112503 23 101 0.0 0.0 0.00 0.10 0.00 93 1015.9
20260506111503 23 84 0.0 0.0 0.00 0.10 0.00 93 1015.6
20260506111004 23 78 0.0 0.0 0.00 0.10 0.00 93 1015.6
20260506110504 23 46 0.0 0.0 0.00 0.10 0.00 93 1015.5
20260506110004 23 46 0.0 0.0 0.00 0.10 0.00 93 1015.3
20260506105504 23 46 0.0 0.0 0.00 0.10 0.00 93 1015.1
20260506105004 23 46 0.0 0.0 0.00 0.10 0.00 93 1014.9
20260506104004 24 46 0.0 0.0 0.00 0.10 0.00 93 1014.8
20260506103504 23 46 0.0 0.0 0.00 0.10 0.00 93 1014.8
20260506103004 24 46 0.0 0.0 0.00 0.10 0.00 93 1014.8
20260506102503 24 46 0.0 0.0 0.00 0.10 0.00 93 1014.6
20260506102004 24 46 0.0 0.0 0.00 0.10 0.00 93 1014.6
20260506101504 24 46 0.0 0.0 0.00 0.10 0.00 93 1014.7
20260506101004 24 46 0.0 0.0 0.00 0.10 0.00 93 1014.7
20260506100504 24 46 0.0 0.0 0.00 0.10 0.00 93 1014.9
20260506100004 23 46 0.0 0.0 0.00 0.10 0.00 93 1015.0
20260506095003 24 46 0.0 0.0 0.00 0.10 0.00 93 1014.7
20260506094503 24 46 0.0 0.0 0.00 0.10 0.00 93 1014.8
20260506094004 24 46 0.0 0.0 0.00 0.10 0.00 93 1014.9
20260506093504 24 46 0.0 0.0 0.00 0.10 0.00 93 1014.8
20260506093004 24 46 0.0 0.0 0.00 0.10 0.00 93 1014.9
20260506092503 24 46 0.0 0.0 0.00 0.10 0.00 93 1015.0
20260506092004 24 46 0.0 0.0 0.00 0.10 0.00 93 1014.9
20260506091504 24 46 0.0 0.0 0.00 0.10 0.00 93 1014.9
20260506091004 24 46 0.0 0.0 0.00 0.10 0.00 93 1014.8
20260506090503 24 46 0.0 0.0 0.00 0.11 0.00 93 1014.8
20260506090004 24 46 0.0 0.0 0.00 0.11 0.00 93 1014.9
20260506085504 24 46 0.0 0.0 0.00 0.11 0.00 93 1015.1
20260506085004 24 46 0.0 0.0 0.00 0.11 0.00 93 1015.1
20260506084504 24 46 0.0 0.0 0.00 0.11 0.00 93 1015.1
20260506083504 24 46 0.0 0.0 0.00 0.11 0.00 93 1015.0
20260506083004 24 46 0.0 0.0 0.00 0.11 0.00 93 1015.0
20260506082504 24 46 0.0 0.0 0.00 0.11 0.00 93 1015.1
20260506082003 24 46 0.0 0.0 0.00 0.11 0.00 93 1015.2
20260506081503 24 46 0.0 0.0 0.00 0.11 0.00 93 1015.2
20260506080504 24 86 0.0 0.0 0.00 0.12 0.00 93 1015.3
20260506073504 24 78 0.0 0.0 0.00 0.12 0.00 93 1014.7
20260506073004 24 100 0.0 0.0 0.00 0.13 0.00 93 1014.7
20260506072504 25 107 0.0 0.0 0.00 0.14 0.00 93 1014.8
20260506072004 25 80 0.0 0.0 0.00 0.15 0.00 93 1014.8
20260506071504 25 86 0.0 0.0 0.00 0.16 0.00 93 1015.1
20260506071004 25 91 0.0 0.0 0.00 0.16 0.00 93 1015.1
20260506062503 25 66 0.0 0.0 0.00 0.16 0.00 94 1014.6
20260506061504 25 67 0.0 0.0 0.00 0.16 0.00 94 1014.2
20260506061004 25 67 0.0 0.0 0.00 0.16 0.00 94 1014.2
20260506060504 25 67 0.0 0.0 0.00 0.16 0.00 94 1014.5
20260506051004 25 67 0.0 0.0 0.00 0.16 0.16 93 1013.3
20260506050504 25 67 0.0 0.0 0.00 0.16 0.16 93 1013.3
20260506045004 25 78 0.0 0.0 0.00 0.16 0.16 93 1013.2
20260506044504 25 56 0.0 0.0 0.00 0.16 0.16 93 1013.2
20260506044004 25 59 0.0 0.0 0.00 0.16 0.16 93 1013.3
20260506043503 25 57 0.0 0.0 0.00 0.16 0.16 93 1013.3
20260506043004 25 56 0.0 0.0 0.00 0.16 0.16 93 1013.2
20260506042503 25 47 0.0 0.0 0.00 0.16 0.16 93 1013.3
20260506042004 25 46 0.0 0.0 0.00 0.16 0.16 93 1013.2
20260506041504 25 35 0.0 0.0 0.00 0.16 0.16 93 1013.3
20260506041004 25 59 0.0 0.0 0.00 0.16 0.16 93 1013.1
20260506040504 25 59 0.0 0.0 0.00 0.16 0.16 93 1013.1
20260506035504 25 50 0.0 0.0 0.00 0.16 0.16 93 1012.9
20260506035004 25 57 0.0 0.0 0.00 0.16 0.16 93 1012.3
20260506034504 25 57 0.0 0.0 0.00 0.16 0.16 93 1012.3
20260506034004 25 53 0.0 0.0 0.00 0.16 0.16 93 1012.1
20260506033504 25 61 0.0 0.0 0.00 0.16 0.16 93 1012.1
20260506033005 25 73 0.0 0.0 0.00 0.16 0.16 93 1012.2
20260506032504 25 78 0.0 0.0 0.00 0.16 0.16 93 1012.1
20260506032004 25 73 0.0 0.0 0.00 0.16 0.16 93 1012.1
20260506031504 25 94 0.0 0.0 0.00 0.16 0.16 93 1012.0
20260506031004 25 72 0.0 0.0 0.00 0.16 0.16 93 1012.0
20260506030504 25 76 0.0 0.0 0.00 0.16 0.16 93 1012.0
20260506030004 25 70 0.0 0.0 0.00 0.16 0.16 93 1011.9
20260506025504 25 80 0.0 0.0 0.00 0.16 0.16 93 1011.7
20260506025004 25 71 0.0 0.0 0.00 0.16 0.16 93 1011.2
20260506024504 25 66 0.0 0.0 0.00 0.16 0.16 93 1011.1
20260506024004 25 97 0.0 0.0 0.00 0.16 0.16 92 1011.0
20260506023504 25 83 0.0 0.0 0.00 0.16 0.16 92 1010.8
20260506023004 26 42 0.0 0.0 0.00 0.16 0.16 92 1010.8
20260506022503 26 42 0.0 0.0 0.00 0.16 0.16 92 1010.7
20260506022004 26 42 0.0 0.0 0.00 0.16 0.16 93 1010.6
20260506021503 26 59 0.0 0.0 0.00 0.16 0.16 93 1010.4
20260506021003 26 59 0.0 0.0 0.00 0.16 0.16 93 1010.2
20260506020503 26 59 0.0 0.0 0.00 0.16 0.16 92 1010.2
20260506020004 26 59 0.0 0.0 0.00 0.16 0.16 92 1010.2
20260506014504 26 59 0.0 0.0 0.00 0.17 0.16 92 1010.1
20260506014004 26 44 0.0 0.0 0.00 0.18 0.16 93 1010.0
20260506013504 26 44 0.0 0.0 0.00 0.19 0.16 92 1009.8
20260506013004 26 30 0.0 0.0 0.00 0.19 0.16 93 1009.9
20260506012503 26 71 0.0 0.0 0.00 0.19 0.16 93 1009.9
20260506012004 26 73 0.0 0.0 0.00 0.19 0.16 93 1009.6
20260506011503 26 73 0.0 0.0 0.00 0.20 0.16 93 1009.5
20260506010503 26 97 0.0 0.0 0.00 0.20 0.16 93 1009.4
20260506010003 26 47 0.0 0.0 0.00 0.21 0.16 93 1009.4
20260506005504 25 82 0.0 0.0 0.00 0.22 0.16 93 1009.3
20260506005004 25 101 0.0 0.0 0.00 0.23 0.16 92 1008.9
20260506004504 26 102 0.0 0.0 0.00 0.24 0.16 92 1008.9
20260506004003 26 96 0.0 0.0 0.00 0.26 0.16 92 1008.9
20260506003504 26 94 0.0 0.0 0.00 0.27 0.16 92 1009.0
20260506003004 26 79 0.0 0.0 0.01 0.28 0.16 92 1009.0
20260506002504 26 90 0.0 0.0 0.01 0.30 0.16 92 1009.0
20260506002004 26 100 0.0 0.0 0.01 0.31 0.16 92 1008.8
20260506001504 26 74 0.0 0.0 0.01 0.32 0.16 92 1008.8
20260506000004 26 52 0.0 0.0 0.01 0.38 0.16 92 1008.7
20260505235503 26 69 0.0 0.0 0.01 0.38 0.16 93 1008.8
20260505235004 26 84 0.0 0.0 0.01 0.40 0.16 93 1008.7
20260505234004 26 73 0.0 0.0 0.01 0.50 0.16 93 1008.6
20260505233504 26 92 0.0 0.0 0.01 0.52 0.16 93 1008.6
20260505233004 26 91 0.0 0.0 0.00 0.51 0.15 93 1008.6
20260505232503 26 92 0.0 0.0 0.00 0.51 0.15 93 1008.5
20260505232004 26 94 0.0 0.0 0.00 0.51 0.15 93 1008.4
20260505231504 26 109 0.0 0.0 0.00 0.51 0.15 93 1008.7
20260505231003 26 96 0.0 0.0 0.00 0.51 0.15 93 1008.8
20260505230004 26 112 0.0 0.0 0.00 0.51 0.15 92 1008.8
20260505225004 26 105 0.0 0.0 0.00 0.51 0.15 92 1008.2
20260505224504 26 103 0.0 0.0 0.01 0.51 0.15 92 1008.2
20260505224004 26 99 0.0 0.0 0.01 0.51 0.15 92 1008.2
20260505223504 26 97 0.0 0.0 0.01 0.51 0.15 91 1008.2
20260505223004 26 104 0.0 0.0 0.01 0.51 0.15 92 1008.2
20260505222504 27 102 0.0 0.0 0.01 0.51 0.15 92 1008.2
20260505222004 27 84 0.0 0.0 0.01 0.51 0.15 92 1008.2
20260505221503 27 48 0.0 0.0 0.01 0.51 0.15 92 1008.1
20260505221004 27 47 0.0 0.0 0.01 0.51 0.15 91 1007.7
20260505220503 27 42 0.0 0.0 0.01 0.51 0.15 91 1007.7
20260505220003 27 50 0.0 0.0 0.02 0.51 0.15 91 1007.5
20260505214504 28 79 0.0 0.0 0.01 0.50 0.14 89 1006.9
20260505214003 29 79 0.0 0.0 0.01 0.50 0.14 89 1006.7
20260505213504 30 102 0.0 0.0 0.01 0.50 0.14 89 1006.6
20260505213004 30 79 0.0 0.0 0.01 0.50 0.14 88 1006.2
20260505212504 31 110 0.0 0.0 0.01 0.50 0.14 88 1006.2
20260505212004 32 107 0.0 1.0 0.01 0.50 0.14 90 1006.0
20260505211503 33 51 0.0 1.0 0.02 0.50 0.14 92 1006.0
20260505211004 32 75 0.0 0.0 0.02 0.50 0.14 92 1006.1
20260505210504 32 75 0.0 1.0 0.02 0.50 0.14 93 1006.1
20260505210004 32 118 0.0 0.0 0.01 0.49 0.13 93 1006.2
20260505205504 31 118 0.0 0.0 0.01 0.49 0.13 93 1006.1
20260505205004 31 119 0.0 0.0 0.01 0.50 0.13 92 1006.2
20260505204003 31 119 0.0 0.0 0.01 0.50 0.13 92 1006.5
20260505203503 31 119 0.0 0.0 0.01 0.50 0.13 93 1006.4
20260505203004 30 119 0.0 0.0 0.02 0.50 0.13 93 1006.6
20260505201504 30 109 0.0 0.0 0.01 0.49 0.12 92 1007.0
20260505200004 30 147 0.0 0.0 0.01 0.49 0.12 92 1007.1
20260505195504 30 147 0.0 0.0 0.02 0.49 0.12 91 1007.3
20260505195004 30 147 0.0 0.0 0.02 0.49 0.12 91 1007.0
20260505194004 31 119 0.0 0.0 0.02 0.49 0.12 91 1006.9
20260505193504 31 118 0.0 0.0 0.02 0.49 0.12 91 1006.8
20260505192503 32 59 0.0 0.0 0.01 0.48 0.11 93 1006.9
20260505192003 32 341 0.0 0.0 0.02 0.48 0.11 93 1007.0
20260505191503 32 341 0.0 0.0 0.02 0.48 0.11 93 1007.0
20260505191004 32 341 0.0 0.0 0.02 0.48 0.11 93 1007.0
20260505190504 31 341 0.0 0.0 0.02 0.48 0.11 93 1007.1
20260505190004 31 341 0.0 0.0 0.02 0.48 0.11 93 1007.1
20260505185504 31 341 2.0 3.0 0.02 0.47 0.10 93 1007.0
20260505185004 31 300 1.0 3.0 0.02 0.47 0.10 94 1006.5
20260505184004 30 154 0.0 0.0 0.02 0.47 0.10 93 1006.6